Location: Boncourt
(49.6160°N, 3.9448°E)
Time: 23:09:44
(UTC+00:00)

Cosmos 2278 Rocket - Pass Details

Date: 09 February 2023
Orbit: 841 x 845 km, 71.0° (Epoch: 01 April)

Event Time Altitude Azimuth Distance (km) Brightness Sun altitude
Rises 20:11:36 0° 322° (NW) 3,414 6.1 -32.4°
Reaches altitude 10° 20:14:32 10° 308° (NW) 2,474 5.4 -32.8°
Maximum altitude 20:18:48 22° 259° (WSW) 1,750 4.3 -33.5°
Enters shadow 20:22:30 12° 213° (SSW) 2,310 4.6 -34.1°
